STARLINK H (44242 NORAD) Tracking and Keplerian Element Data

This shows tracking and keplerian element data for the satellite.

Feedback or suggestion? Click here.




ElementValue
Catalog44242
NameSTARLINK H
Epoch Orbit466
Epoch Day174.02678004
Epoch Year2019
RAAN37.2098
Inclination52.9998
Eccentricity0.000225
Argument of Perigee100.6573
Mean Anonmoly259.4669
Mean Motion15.05463871
Decay Rate1.751E-05
L11 44242U 19029H 19174.02678004 .00001751 00000-0 13977-3 0 9990
L22 44242 52.9998 37.2098 0002250 100.6573 259.4669 15.05463871 4667

Live tracking and technical data element details for STARLINK H (NORAD 44242). STARLINK H can be tracked NOW for your location showing map with azimuth and elevation plus other details from your city location.

Track the satellite on the map from your city or location and see movement details for azimuth, elevation, latitude, longitude, range, height, and movement on the map or in text.







IsCatalogInMostPopularTable: catalog: 44242, numindb: 37
Update: records affected: 1



GetName: 44242 STARLINK H

Hit Count: updated at: Sun, 21 Jul 2019 21:26:28 GMT